Date String (YYYY-MM-DD hh:mm:ss) UTC,Instrument flags,absolute air pressure of the measurement (hPa),sample flow rate (lpm),inlet stack bypass flow (lpm),air temperature of the measurement (°C),ambient temperature measured by the external sensor (°C),aerosol sample conditioner tube jacket temperature (°C),OPC LED temperature (°C),internal box temperature (°C),relative humidity of the measurement (%),span deviation,mass concentration of particles derived from Lorenz-Mie calculation of OPC scattering (μg/m³),mass concentration of particles derived from Lorenz-Mie calculation of OPC scattering (μg/m³),mass concentration of particles derived from Lorenz-Mie calculation of OPC scattering (μg/m³)
DateTimeUTC,F1_M11,P_M11,Q1_M11,Q2_M11,T1_M11,T2_M11,T3_M11,T4_M11,T5_M11,U1_M11,ZSPAN_M11,X0_M11,X2_M11,X1_M11
2023-06-16 11:00:00,SystemResetWarning,0831.0,5.00,000.00,030.5,028.8,000.0,039.2,031.9,26.8,0000.0,0005.82,0003.43,0002.94
2023-06-16 11:01:00,SystemResetWarning,0830.9,5.00,000.00,030.5,028.8,000.0,039.2,032.0,26.8,0000.0,0005.98,0003.44,0002.94
2023-06-16 11:02:00,SystemResetWarning,0830.9,5.00,000.00,030.5,028.8,000.0,039.2,032.0,26.9,0000.0,0005.83,0003.44,0002.94
2023-06-16 11:03:00,SystemResetWarning,0830.9,5.00,000.00,030.5,028.8,000.0,039.2,032.0,26.8,0000.0,0005.64,0003.42,0002.95
2023-06-16 11:04:00,SystemResetWarning,0830.9,5.00,000.00,030.5,028.8,000.0,039.2,032.0,26.8,0000.0,0005.83,0003.42,0002.94
2023-06-16 11:05:00,SystemResetWarning,0830.9,5.00,000.00,030.5,028.8,000.0,039.2,032.0,26.8,0000.0,0006.14,0003.38,0002.93
2023-06-16 11:06:00,SystemResetWarning,0830.9,5.00,000.00,030.5,028.8,000.0,039.2,032.0,26.9,0000.0,0006.23,0003.38,0002.92
2023-06-16 11:07:00,SystemResetWarning,0831.0,5.00,000.00,030.5,028.8,000.0,039.2,031.9,26.9,0000.0,0006.40,0003.37,0002.90
2023-06-16 11:08:00,SystemResetWarning,0831.0,5.00,000.00,030.5,028.8,000.0,039.2,032.0,26.9,0000.0,0006.29,0003.37,0002.91
2023-06-16 11:09:00,SystemResetWarning,0831.0,5.00,000.00,030.6,028.8,000.0,039.2,032.0,26.9,0000.0,0006.28,0003.37,0002.91
2023-06-16 11:10:00,SystemResetWarning,0831.0,5.00,000.00,030.6,028.8,000.0,039.2,032.0,26.8,0000.0,0006.20,0003.34,0002.89
2023-06-16 11:11:00,SystemResetWarning,0831.0,5.00,000.00,030.5,028.8,000.0,039.2,031.9,26.7,0000.0,0006.11,0003.32,0002.89
2023-06-16 11:12:00,SystemResetWarning,0831.0,5.00,000.00,030.5,028.8,000.0,039.2,032.0,26.6,0000.0,0005.93,0003.28,0002.88
2023-06-16 11:13:00,SystemResetWarning,0831.0,5.00,000.00,030.5,028.8,000.0,039.2,032.0,26.6,0000.0,0005.89,0003.26,0002.87
2023-06-16 11:14:00,SystemResetWarning,0831.0,5.01,000.00,030.5,028.8,000.0,039.2,032.0,26.6,0000.0,0006.06,0003.28,0002.87
2023-06-16 11:15:00,SystemResetWarning,0831.0,5.01,000.00,030.5,028.8,000.0,039.2,031.9,26.6,0000.0,0005.99,0003.28,0002.87
2023-06-16 11:16:00,SystemResetWarning,0831.1,5.00,000.00,030.5,028.8,000.0,039.2,031.9,26.6,0000.0,0005.47,0003.29,0002.88
2023-06-16 11:17:00,SystemResetWarning,0831.0,5.00,000.00,030.5,028.8,000.0,039.2,031.9,26.7,0000.0,0006.03,0003.27,0002.86
2023-06-16 11:18:00,SystemResetWarning,0831.1,5.00,000.00,030.5,028.8,000.0,039.2,032.0,26.7,0000.0,0006.06,0003.26,0002.85
2023-06-16 11:19:00,SystemResetWarning,0831.1,5.00,000.00,030.5,028.8,000.0,039.2,032.0,26.7,0000.0,0006.03,0003.25,0002.82
2023-06-16 11:20:00,SystemResetWarning,0831.2,5.00,000.00,030.5,028.8,000.0,039.2,031.9,26.7,0000.0,0005.90,0003.22,0002.82
2023-06-16 11:21:00,SystemResetWarning,0831.1,4.99,000.00,030.5,028.8,000.0,039.2,032.0,26.6,0000.0,0005.79,0003.21,0002.82
2023-06-16 11:22:00,SystemResetWarning,0831.1,5.00,000.00,030.5,028.8,000.0,039.2,032.0,26.6,0000.0,0006.00,0003.21,0002.81
2023-06-16 11:23:00,SystemResetWarning,0831.1,5.00,000.00,030.5,028.9,000.0,039.2,032.0,26.6,0000.0,0005.92,0003.21,0002.81
2023-06-16 11:24:00,SystemResetWarning,0831.2,5.01,000.00,030.5,028.8,000.0,039.2,032.0,26.6,0000.0,0005.86,0003.21,0002.82
2023-06-16 11:25:00,SystemResetWarning,0831.2,5.01,000.00,030.5,028.8,000.0,039.2,032.0,26.6,0000.0,0006.91,0003.22,0002.81
2023-06-16 11:26:00,SystemResetWarning,0831.2,5.00,000.00,030.5,028.8,000.0,039.2,032.0,26.7,0000.0,0006.96,0003.22,0002.80
2023-06-16 11:27:00,SystemResetWarning,0831.2,5.00,000.00,030.5,028.8,000.0,039.2,032.0,26.7,0000.0,0006.95,0003.21,0002.78
2023-06-16 11:28:00,SystemResetWarning,0831.2,5.00,000.00,030.5,028.8,000.0,039.2,031.9,26.7,0000.0,0006.56,0003.20,0002.77
2023-06-16 11:29:00,SystemResetWarning,0831.2,4.99,000.00,030.5,028.8,000.0,039.2,031.9,26.7,0000.0,0006.02,0003.18,0002.76
2023-06-16 11:30:00,SystemResetWarning,0831.2,4.99,000.00,030.5,028.8,000.0,039.2,031.9,26.6,0000.0,0006.12,0003.19,0002.74
2023-06-16 11:31:00,SystemResetWarning,0831.2,5.00,000.00,030.5,028.8,000.0,039.2,031.9,26.7,0000.0,0006.15,0003.18,0002.72
2023-06-16 11:32:00,SystemResetWarning,0831.2,5.01,000.00,030.5,028.8,000.0,039.2,031.9,26.7,0000.0,0006.15,0003.16,0002.71
2023-06-16 11:33:00,SystemResetWarning,0831.2,5.00,000.00,030.5,028.8,000.0,039.2,032.0,26.4,0000.0,0006.18,0003.16,0002.69
2023-06-16 11:34:00,SystemResetWarning,0831.2,5.00,000.00,030.5,028.7,000.0,039.2,031.9,26.1,0000.0,0006.05,0003.13,0002.65
2023-06-16 11:35:00,SystemResetWarning,0831.2,5.00,000.00,030.5,028.7,000.0,039.2,031.9,25.8,0000.0,0006.08,0003.10,0002.60
2023-06-16 11:36:00,SystemResetWarning,0831.2,5.00,000.00,030.5,028.7,000.0,039.2,031.9,25.9,0000.0,0005.01,0003.03,0002.56
2023-06-16 11:37:00,SystemResetWarning,0831.2,5.00,000.00,030.5,028.7,000.0,039.2,031.9,25.9,0000.0,0005.04,0002.99,0002.52
2023-06-16 11:38:00,SystemResetWarning,0831.2,5.00,000.00,030.5,028.7,000.0,039.1,031.9,25.8,0000.0,0005.06,0002.96,0002.47
2023-06-16 11:39:00,SystemResetWarning,0831.2,5.00,000.00,030.5,028.7,000.0,039.1,031.8,25.8,0000.0,0004.95,0002.90,0002.41
2023-06-16 11:40:00,SystemResetWarning,0831.2,5.00,000.00,030.5,028.7,000.0,039.1,031.9,25.8,0000.0,0005.51,0002.85,0002.36
2023-06-16 11:41:00,SystemResetWarning,0831.2,5.00,000.00,030.5,028.7,000.0,039.1,031.9,25.8,0000.0,0005.38,0002.77,0002.32
2023-06-16 11:42:00,SystemResetWarning,0831.2,5.00,000.00,030.5,028.7,000.0,039.1,031.9,25.9,0000.0,0005.21,0002.71,0002.29
2023-06-16 11:43:00,SystemResetWarning,0831.1,5.00,000.00,030.5,028.7,000.0,039.1,031.9,26.1,0000.0,0005.24,0002.69,0002.26
2023-06-16 11:44:00,SystemResetWarning,0831.2,5.00,000.00,030.5,028.7,000.0,039.1,031.9,26.3,0000.0,0005.13,0002.67,0002.25
2023-06-16 11:45:00,SystemResetWarning,0831.2,5.00,000.00,030.5,028.7,000.0,039.1,031.9,26.3,0000.0,0005.17,0002.69,0002.26
2023-06-16 11:46:00,SystemResetWarning,0831.3,5.00,000.00,030.5,028.8,000.0,039.1,031.9,26.4,0000.0,0005.12,0002.72,0002.27
2023-06-16 11:47:00,SystemResetWarning,0831.3,5.00,000.00,030.5,028.8,000.0,039.1,031.9,26.3,0000.0,0005.23,0002.79,0002.28
2023-06-16 11:48:00,SystemResetWarning,0831.3,5.00,000.00,030.5,028.8,000.0,039.1,031.9,26.4,0000.0,0004.86,0002.78,0002.29
2023-06-16 11:49:00,SystemResetWarning,0831.3,5.00,000.00,030.5,028.8,000.0,039.1,031.9,26.4,0000.0,0005.13,0002.83,0002.31
2023-06-16 11:50:00,SystemResetWarning,0831.3,5.00,000.00,030.5,028.8,000.0,039.1,031.9,26.4,0000.0,0005.22,0002.92,0002.35
2023-06-16 11:51:00,SystemResetWarning,0831.3,5.00,000.00,030.5,028.8,000.0,039.1,032.0,26.4,0000.0,0004.68,0002.98,0002.39
2023-06-16 11:52:00,SystemResetWarning,0831.4,5.00,000.00,030.5,028.8,000.0,039.1,032.0,26.5,0000.0,0004.89,0003.07,0002.44
2023-06-16 11:53:00,SystemResetWarning,0831.4,5.00,000.00,030.5,028.8,000.0,039.1,031.9,26.5,0000.0,0005.11,0003.12,0002.48
2023-06-16 11:54:00,SystemResetWarning,0831.5,5.00,000.00,030.5,028.8,000.0,039.1,031.9,26.6,0000.0,0005.16,0003.14,0002.51
2023-06-16 11:55:00,SystemResetWarning,0831.5,5.00,000.00,030.5,028.8,000.0,039.1,031.9,26.6,0000.0,0005.14,0003.17,0002.54
2023-06-16 11:56:00,SystemResetWarning,0831.5,4.99,000.00,030.5,028.8,000.0,039.1,031.9,26.6,0000.0,0005.39,0003.22,0002.58
2023-06-16 11:57:00,SystemResetWarning,0831.5,4.99,000.00,030.5,028.8,000.0,039.1,031.9,26.6,0000.0,0005.41,0003.24,0002.62
2023-06-16 11:58:00,SystemResetWarning,0831.5,5.00,000.00,030.5,028.8,000.0,039.1,031.9,26.7,0000.0,0005.32,0003.22,0002.64
2023-06-16 11:59:00,SystemResetWarning,0831.6,5.00,000.00,030.5,028.8,000.0,039.1,032.0,26.8,0000.0,0005.34,0003.23,0002.67
